STARLINK-31448, 59611

Orbit data source: Space-Track

STARLINK-31448, 59611 is a payload satellite owned by SpaceX/Seattle (US) in LEO that was launched on Sun, 28 Apr 2024 UTC via an FALCON 9 launch vehicle from the Air Force Eastern Test Range (AFETR). Payload-class satellites include a variety of spacecraft equipped with specific instruments for various scientific and technological missions. These include communications satellites like Starlink; space stations such as the ISS; scientific satellites like the Hubble; Earth observation satellites from companies like Planet Labs, Umbra, and HawkEye 360; GPS; miniature CubeSats for education and research; and military/defense satellites.

Loading next visibility...
Identifier
59611, 2024-080L
Orbit
LEO
Country
Flag of USUS
Related business
Manufacturer
SpaceX/Seattle
Mission
Operational Commercial Communications
Bus & Motor
STARLINK V2M, Unknown motor
Mass
730 kg wet, ~700 kg dry
Launch date (UTC)
2024-04-28 (2 years ago)
Launch vehicle
FALCON 9
Launch site
Air Force Eastern Test Range (AFETR)
Object type
Payload
Rocket body
Debris
Shape & HBR
Box + 2 Pan, 17.7 m
Radar Cross Section
33.884 m², Large (>1 m²)

Expand to show TLE details & history
Last TLE update: 2 days ago

TLE from 2 days ago
0 STARLINK-31448
1 59611U 24080L   26171.09411237 -.00001823  00000-0 -56782-4 0  9998
2 59611  42.9954 176.1543 0000980 255.5364 104.5379 15.27560237120236
Epoch: 2026-06-20T02:15Z
TLE epoch observation values (Epoch: 2026-06-20T02:15:31.308Z)
Latitude
-0.00002°
Longitude
-126.03984°
Altitude
483.052 km
Speed
7.626 km/s
True Right ascension
11h 44m 37s
True Declination
0° 00' 00"
Sunlit
Object was in daylight at epoch
Visualization orbit readout
Latitude
Unknown
Longitude
Unknown
Altitude
Unknown
Speed
Unknown
Apparent Right ascension
Unknown
Apparent Declination
Unknown
Sunlit
N/A
Visualization observer readout
Local Sidereal Time
23:18:49
Azimuth
Unknown
Elevation
Unknown
Doppler factor
Unknown
Orbital elements
Apogee altitude
485.727 km
Perigee altitude
484.382 km
Semi-major axis
6,863.191 km
Eccentricity
0.0001
Inclination
42.9954°
RAAN
176.1543°
Arg. of periapsis
255.5364°
True anomaly
104.54877°
Mean anomaly
104.5379°
Eccentric anomaly
104.54334°
Mean motion
3.81728 °/min
Orbital period
94.31 mins
BSTAR
-0.000056782
Loading maneuver chart data...
Computing Atmospheric mass density...
Loading historical data...
Loading historical data...
Loading historical data...
Loading historical data...
Loading historical data...
Loading historical data...
Loading historical data...

Documentation

Showing up to 5 results
|